• In Hungary
  • List of Countries
  • For 7 days
  • Water Temperature
  • Satellite Maps
  • Weather Map
  • News
  • Weather Widgets
  • user-avatar
    Login

    Hourly Weather Frome

    Today, 20 November, Monday

    Time Temperature Precipitation Wind Pressure Humidity
    00:00 +7°C° 0 mm 4 mps 756 mmHg 94%
    01:00 +7°C° 0 mm 4 mps 755 mmHg 94%
    02:00 +8°C° 0 mm 5 mps 755 mmHg 93%
    03:00 +8°C° 0 mm 5 mps 754 mmHg 93%
    04:00 +8°C° 0 mm 5 mps 754 mmHg 92%
    05:00 +9°C° 0 mm 6 mps 754 mmHg 90%
    06:00 +9°C° 0 mm 6 mps 753 mmHg 89%
    07:00 +9°C° 0 mm 6 mps 753 mmHg 89%
    08:00 +9°C° 0 mm 6 mps 753 mmHg 89%
    09:00 +9°C° 0 mm 7 mps 753 mmHg 90%
    10:00 +10°C° 0 mm 7 mps 753 mmHg 89%
    11:00 +10°C° 0 mm 7 mps 752 mmHg 88%
    12:00 +11°C° 0 mm 8 mps 752 mmHg 87%
    13:00 +11°C° 0.1 mm 7 mps 752 mmHg 88%
    14:00 +11°C° 0.1 mm 7 mps 751 mmHg 89%
    15:00 +11°C° 0.1 mm 7 mps 751 mmHg 90%
    16:00 +11°C° 0.1 mm 7 mps 751 mmHg 91%
    17:00 +11°C° 0.1 mm 7 mps 751 mmHg 91%
    18:00 +11°C° 0.1 mm 6 mps 751 mmHg 92%
    19:00 +11°C° 0.2 mm 6 mps 751 mmHg 93%
    20:00 +11°C° 0.2 mm 6 mps 751 mmHg 93%
    21:00 +11°C° 0.2 mm 6 mps 751 mmHg 94%
    22:00 +11°C° 0 mm 6 mps 751 mmHg 94%
    23:00 +10°C° 0 mm 6 mps 751 mmHg 94%

    Tomorrow, 21 November, Tuesday

    Time Temperature Precipitation Wind Pressure Humidity
    00:00 +10°C° 0 mm 6 mps 751 mmHg 94%
    01:00 +10°C° 0 mm 5 mps 751 mmHg 94%
    02:00 +10°C° 0 mm 5 mps 750 mmHg 94%
    03:00 +9°C° 0 mm 5 mps 750 mmHg 95%
    04:00 +10°C° 0 mm 4 mps 750 mmHg 95%
    05:00 +10°C° 0 mm 4 mps 749 mmHg 96%
    06:00 +10°C° 0 mm 4 mps 749 mmHg 96%
    07:00 +10°C° 0 mm 4 mps 749 mmHg 96%
    08:00 +10°C° 0 mm 4 mps 749 mmHg 95%
    09:00 +11°C° 0 mm 4 mps 749 mmHg 94%
    10:00 +10°C° 0 mm 5 mps 749 mmHg 92%
    11:00 +11°C° 0 mm 6 mps 748 mmHg 89%
    12:00 +11°C° 0 mm 6 mps 748 mmHg 87%
    13:00 +11°C° 0 mm 6 mps 748 mmHg 86%
    14:00 +13°C° 0 mm 6 mps 747 mmHg 86%
    15:00 +12°C° 0 mm 7 mps 746 mmHg 85%
    16:00 +12°C° 0 mm 7 mps 746 mmHg 85%
    17:00 +11°C° 0 mm 7 mps 746 mmHg 85%
    18:00 +11°C° 0 mm 7 mps 745 mmHg 85%
    19:00 +11°C° 0 mm 8 mps 745 mmHg 84%
    20:00 +11°C° 0 mm 8 mps 744 mmHg 84%
    21:00 +11°C° 0 mm 8 mps 744 mmHg 84%
    22:00 +12°C° 0.1 mm 8 mps 744 mmHg 83%
    23:00 +12°C° 0.1 mm 8 mps 744 mmHg 83%

    Day after tomorrow, 22 November, Wednesday

    Time Temperature Precipitation Wind Pressure Humidity
    00:00 +12°C° 0.1 mm 8 mps 743 mmHg 83%
    01:00 +12°C° 0 mm 8 mps 743 mmHg 83%
    02:00 +12°C° 0 mm 8 mps 743 mmHg 84%
    03:00 +12°C° 0 mm 8 mps 742 mmHg 85%
    04:00 +12°C° 0.1 mm 8 mps 742 mmHg 85%
    05:00 +12°C° 0.1 mm 8 mps 741 mmHg 85%
    06:00 +12°C° 0.1 mm 9 mps 741 mmHg 84%
    07:00 +12°C° 0 mm 9 mps 740 mmHg 82%
    08:00 +12°C° 0 mm 9 mps 740 mmHg 80%
    09:00 +12°C° 0 mm 10 mps 740 mmHg 77%
    10:00 +12°C° 0 mm 10 mps 739 mmHg 77%
    11:00 +13°C° 0 mm 11 mps 738 mmHg 76%
    12:00 +13°C° 0 mm 11 mps 737 mmHg 75%
    13:00 +13°C° 0.5 mm 12 mps 736 mmHg 77%
    14:00 +13°C° 0.5 mm 12 mps 735 mmHg 78%
    15:00 +13°C° 0.5 mm 13 mps 735 mmHg 80%
    16:00 +13°C° 0.2 mm 12 mps 734 mmHg 81%
    17:00 +13°C° 0.2 mm 12 mps 734 mmHg 81%
    18:00 +12°C° 0.2 mm 11 mps 734 mmHg 82%
    19:00 +12°C° 0.5 mm 11 mps 734 mmHg 82%
    20:00 +12°C° 0.5 mm 11 mps 734 mmHg 81%
    21:00 +12°C° 0.5 mm 12 mps 734 mmHg 81%
    22:00 +12°C° 0.1 mm 11 mps 735 mmHg 81%
    23:00 +12°C° 0.1 mm 11 mps 736 mmHg 82%

    23 November, Thursday

    Time Temperature Precipitation Wind Pressure Humidity
    00:00 +12°C° 0.1 mm 10 mps 737 mmHg 83%
    01:00 +12°C° 0.1 mm 10 mps 738 mmHg 83%
    02:00 +12°C° 0.1 mm 9 mps 738 mmHg 84%
    03:00 +12°C° 0.1 mm 9 mps 739 mmHg 85%
    04:00 +12°C° 0 mm 8 mps 740 mmHg 85%
    05:00 +12°C° 0 mm 8 mps 740 mmHg 86%
    06:00 +12°C° 0 mm 8 mps 741 mmHg 86%
    07:00 +12°C° 0 mm 8 mps 741 mmHg 87%
    08:00 +12°C° 0 mm 8 mps 742 mmHg 88%
    09:00 +12°C° 0 mm 8 mps 742 mmHg 89%
    10:00 +12°C° 0.1 mm 8 mps 743 mmHg 88%
    11:00 +13°C° 0.1 mm 9 mps 743 mmHg 87%
    12:00 +13°C° 0.1 mm 10 mps 743 mmHg 85%
    13:00 +13°C° 0.2 mm 10 mps 743 mmHg 85%
    14:00 +13°C° 0.2 mm 9 mps 743 mmHg 85%
    15:00 +13°C° 0.2 mm 9 mps 743 mmHg 85%
    16:00 +13°C° 1 mm 9 mps 743 mmHg 87%
    17:00 +13°C° 1 mm 9 mps 743 mmHg 88%
    18:00 +13°C° 1 mm 9 mps 743 mmHg 90%
    19:00 +13°C° 1.6 mm 9 mps 743 mmHg 90%
    20:00 +13°C° 1.6 mm 9 mps 743 mmHg 90%
    21:00 +13°C° 1.6 mm 9 mps 743 mmHg 89%
    22:00 +13°C° 1 mm 9 mps 742 mmHg 89%
    23:00 +13°C° 1 mm 9 mps 742 mmHg 88%

    24 November, Friday

    Time Temperature Precipitation Wind Pressure Humidity
    00:00 +12°C° 1 mm 9 mps 742 mmHg 88%
    01:00 +12°C° 1 mm 9 mps 742 mmHg 89%
    02:00 +12°C° 1 mm 9 mps 742 mmHg 89%
    03:00 +12°C° 1 mm 8 mps 742 mmHg 90%
    04:00 +12°C° 1.6 mm 8 mps 742 mmHg 90%
    05:00 +12°C° 1.6 mm 8 mps 741 mmHg 90%
    06:00 +12°C° 1.6 mm 8 mps 741 mmHg 89%
    07:00 +12°C° 2.1 mm 8 mps 741 mmHg 90%
    08:00 +12°C° 2.1 mm 8 mps 741 mmHg 90%
    09:00 +12°C° 2.1 mm 9 mps 741 mmHg 90%
    10:00 +11°C° 1.7 mm 7 mps 742 mmHg 90%
    11:00 +10°C° 1.7 mm 6 mps 742 mmHg 90%
    12:00 +11°C° 1.7 mm 4 mps 742 mmHg 90%
    13:00 +10°C° 2.5 mm 4 mps 742 mmHg 91%
    14:00 +10°C° 2.5 mm 4 mps 742 mmHg 92%
    15:00 +10°C° 2.5 mm 4 mps 742 mmHg 92%
    16:00 +10°C° 2.1 mm 4 mps 742 mmHg 92%
    17:00 +9°C° 2.1 mm 5 mps 741 mmHg 92%
    18:00 +9°C° 2.1 mm 5 mps 741 mmHg 92%
    19:00 +9°C° 1.2 mm 5 mps 741 mmHg 92%
    20:00 +9°C° 1.2 mm 5 mps 741 mmHg 93%
    21:00 +9°C° 1.2 mm 5 mps 741 mmHg 93%
    22:00 +9°C° 0.7 mm 5 mps 740 mmHg 93%
    23:00 +9°C° 0.7 mm 6 mps 740 mmHg 93%

    25 November, Saturday

    Time Temperature Precipitation Wind Pressure Humidity
    00:00 +9°C° 0.7 mm 6 mps 739 mmHg 93%
    01:00 +9°C° 1 mm 6 mps 739 mmHg 93%
    02:00 +8°C° 1 mm 5 mps 738 mmHg 93%
    03:00 +8°C° 1 mm 5 mps 737 mmHg 93%
    04:00 +9°C° 1.6 mm 6 mps 736 mmHg 90%
    05:00 +9°C° 1.6 mm 8 mps 736 mmHg 86%
    06:00 +8°C° 1.6 mm 9 mps 735 mmHg 83%
    07:00 +9°C° 0.3 mm 8 mps 736 mmHg 82%
    08:00 +7°C° 0.3 mm 8 mps 736 mmHg 82%
    09:00 +8°C° 0.3 mm 7 mps 736 mmHg 82%
    10:00 +6°C° 0.3 mm 8 mps 737 mmHg 82%
    11:00 +5°C° 0.3 mm 9 mps 739 mmHg 82%
    12:00 +3°C° 0.3 mm 10 mps 740 mmHg 83%
    13:00 +4°C° 0 mm 8 mps 742 mmHg 80%
    14:00 +4°C° 0 mm 7 mps 744 mmHg 77%
    15:00 +4°C° 0 mm 6 mps 746 mmHg 75%
    16:00 +3°C° 0 mm 5 mps 747 mmHg 76%
    17:00 +4°C° 0 mm 4 mps 749 mmHg 77%
    18:00 +3°C° 0 mm 3 mps 750 mmHg 79%
    19:00 +4°C° 0 mm 2 mps 751 mmHg 80%
    20:00 +4°C° 0 mm 2 mps 751 mmHg 81%
    21:00 +4°C° 0 mm 2 mps 752 mmHg 82%
    22:00 +3°C° 0.2 mm 3 mps 752 mmHg 82%
    23:00 +3°C° 0.2 mm 3 mps 751 mmHg 83%
    Show more